Current Version              Previous Version:    01  02  03  04  05  06  07  08  09  10  11  12  13  14  15  16  17  18  19  20  21  22  23  24  25  26  27  28  29  30  
   31  32  33  34  35  36  37  38  39  40  41  42  43  44  45  46  47  48  49  50  51  52  53  54  55  56  57  58  59  60  

[Printable]
151
ASUS44 KFWD 230403
RWRTX
NORTH TEXAS HOURLY WEATHER ROUNDUP
NATIONAL WEATHER SERVICE FORT WORTH TX
1100 PM CDT FRI AUG 22 2014

NOTE: "FAIR" INDICATES FEW OR NO CLOUDS BELOW 12,000 FEET WITH NO
SIGNIFICANT WEATHER AND/OR OBSTRUCTIONS TO VISIBILITY.

TXZ118-119-230500-
DALLAS/FORT WORTH METROPLEX

CITY           SKY/WX    TMP DP  RH WIND       PRES   REMARKS
DFW AIRPORT    CLEAR     89  67  47 S12       29.96R HX  92
DALLAS LOVE    CLEAR     89  68  49 S15G24    29.96R HX  93
FTW MEACHAM    CLEAR     90  67  46 S16G25    29.95R HX  93
DAL-EXECUTIVE  CLEAR     88  67  49 SE7       29.97R HX  91
FTW-ALLIANCE   CLEAR     88  66  48 S13       29.94S HX  90
FTW-NAS-JRB    CLEAR     91  63  39 SE14      29.99R HX  92
FTW-SPINKS     CLEAR     85  67  53 SE7       29.98S
ARLINGTON      CLEAR     88  66  48 SE10      29.96S HX  90
GRAND PRAIRIE  CLEAR     88  65  45 SE10      29.98S HX  90
ADDISON        CLEAR     89  65  45 S14G20    29.98S HX  91
MESQUITE       CLEAR     85  68  55 S8        29.97S
LANCASTER      CLEAR     85  67  55 SE6       29.98S
$$

TXZ091>094-102>105-117-120-121-131>134-230500-
NORTH CENTRAL TEXAS

CITY           SKY/WX    TMP DP  RH WIND       PRES   REMARKS
SHRMAN/DENISON CLEAR     85  65  49 SE16      29.97S
GAINESVILLE    CLEAR     79  64  58 SE7       29.98R
BOWIE          CLEAR     83  58  42 SE5       29.96R
BRIDGEPORT     CLEAR     88  55  31 S13       29.96S
DECATUR        CLEAR     86  56  36 SE9       29.97R
DENTON         CLEAR     88  64  44 SE14      29.95R
MCKINNEY       CLEAR     83  70  64 SE7       29.97R
GREENVILLE     CLEAR     82  68  61 S6        29.98S
ROCKWALL       CLEAR     84  70  61 S6        29.96S
TERRELL        CLEAR     85  68  56 S8        29.98S
WAXAHACHIE     CLEAR     84  64  50 SE7       29.99S
CLEBURNE       CLEAR     84  68  58 SE9       29.99S
GRANBURY       CLEAR     90  60  36 SE10      29.97S
$$

TXZ083>090-098>101-113>116-127>130-139>142-154-155-230500-
WESTERN NORTH TEXAS

CITY           SKY/WX    TMP DP  RH WIND       PRES   REMARKS
WICHITA FALLS  CLEAR     85  53  33 S12       29.91R
WF-KICKAPOO    CLEAR     83  50  31 S5        29.93S
VERNON         CLEAR     89  43  20 S12       29.93R
ABILENE        CLEAR     87  52  29 S14       29.99R
ABILENE-DYESS  CLEAR     82  54  38 S9        29.98R
BRECKENRIDGE   CLEAR     87  48  25 S12       29.96S
GRAHAM         CLEAR     87  52  29 SE7       29.94R
MINERAL WELLS  CLEAR     84  59  42 S8        29.95R
STEPHENVILLE   CLEAR     86  55  33 SE5       30.02R
COMANCHE       CLEAR     84  54  36 S7        30.00S
BROWNWOOD      CLOUDY    82  50  32 SE7       30.00R
COLEMAN        CLEAR     79  54  41 S7        30.01R
BRADY          CLEAR     81  54  39 SE6       30.02R
$$

TXZ143>147-156>162-174-175-230500-
CENTRAL TEXAS

CITY           SKY/WX    TMP DP  RH WIND       PRES   REMARKS
WACO           CLEAR     89  66  46 SE18      29.97S HX  91
WACO-TSTC      CLEAR     90  64  43 S10       29.97S HX  91
WACO-MCGREGOR  CLEAR     88  63  42 SE15      29.99R
HILLSBORO      CLEAR     87  63  44 SE12      29.98S
CORSICANA      CLEAR     87  69  54 SE10      30.00R HX  91
MEXIA          CLEAR     83  70  63 S7        29.99S
HEARNE           N/A     86  70  59 SE8       30.00S HX  90
CAMERON        CLEAR     88  69  53 S12G18    29.99R HX  93
TEMPLE         CLEAR     88  64  45 SE14      29.98S
KILLEEN        CLEAR     88  63  42 SE13      29.99S
KILLEEN-SKYLRK CLEAR     88  63  42 SE12      29.99S
FORT HOOD      CLEAR     89  63  41 SE10      29.99S HX  90
GATESVILLE     CLEAR     84  63  48 CALM      30.00S
HAMILTON       CLEAR     84  58  41 SE7       30.01S
LAMPASAS       CLEAR     86  62  44 S8        30.00R
$$

TXZ095>097-106>112-122>126-135>138-148>153-164>167-230500-
EAST TEXAS

CITY           SKY/WX    TMP DP  RH WIND       PRES   REMARKS
PARIS          CLEAR     81  66  61 S8        29.99S
SULPHUR SPRNGS CLEAR     85  70  61 S9        30.00S HX  90
CLARKSVILLE    MOCLDY    83  68  62 SE3       29.99R
MOUNT PLEASANT CLEAR     79  70  74 SE6       30.01S
GILMER         CLEAR     82  73  74 S7        30.01F
MINEOLA        CLEAR     82  73  74 SE3       30.00S
TYLER          CLEAR     83  71  67 S8        30.00S
LONGVIEW       CLEAR     81  70  69 S7        30.00S
MARSHALL       CLEAR     80  75  85 CALM      30.02F
ATHENS         CLEAR     81  70  69 SE5       29.99S
PALESTINE      CLEAR     83  71  68 SE3       30.02R
JACKSONVILLE   CLEAR     82  72  70 SE7       30.04S
HENDERSON      CLEAR     78  72  82 CALM      30.02S
NACOGDOCHES    CLEAR     79  72  78 SE5       30.02F
LUFKIN         CLEAR     83  73  72 S5        30.02S
$$

SUPPLEMENTAL OBSERVATIONS (CENTRAL)

CITY           SKY/WX    TMP DP  RH WIND       PRES   REMARKS
$$

SUPPLEMENTAL OBSERVATIONS (WEST)

CITY           SKY/WX    TMP DP  RH WIND       PRES   REMARKS
$$

SUPPLEMENTAL OBSERVATIONS (EAST)

CITY           SKY/WX    TMP DP  RH WIND       PRES   REMARKS
$$

SUPPLEMENTAL OBSERVATIONS ARE A COLLECTION OF AUTOMATED INSTRUMENTS
THAT ARE MAINTAINED BY A VARIETY OF FEDERAL AND STATE AGENCIES.
CERTAIN ELEMENTS...SUCH AS HUMIDITY VALUES AND SUSTAINED WIND
SPEEDS...MAY BE APPROXIMATED.